Temperature
16 16 17 17 14 12 14 15 17 18 18 19 19 18 16 16 17 16 15 15 15 15 15 15 15 15 15 15 15 15 15 15 15 15 15 15 15 15 15 15 15 15 15 15 15 15 15 15 15
16 16 17 16 12 13 14 15 16 17 18 19 19 18 16 15 16 15 15 15 15 15 15 15 15 15 15 15 15 15 15 15 15 15 15 15 15 15 15 15 15 15 15 15 15 15 15 15 15
16 16 16 12 12 13 16 17 16 18 19 19 18 17 16 15 15 15 16 15 15 15 15 15 15 15 15 15 15 15 14 14 14 14 14 14 14 14 14 14 15 15 15 15 15 15 15 15 15
16 16 15 12 14 14 15 16 16 17 18 18 17 16 15 15 15 15 15 15 15 15 14 14 14 14 14 14 14 14 14 14 14 14 14 14 14 14 14 14 14 14 14 14 14 14 14 14 14
16 16 12 12 14 14 15 16 17 16 17 17 17 15 15 15 15 15 15 15 15 14 14 14 14 14 14 14 14 14 14 14 14 14 14 14 14 14 14 14 14 14 14 14 14 14 14 14 14
15 13 11 12 14 15 15 17 17 16 16 17 16 14 14 14 14 15 14 14 14 14 14 14 14 14 14 14 14 14 14 13 13 13 13 14 14 14 14 14 14 14 14 14 14 14 14 14 14
14 11 12 13 14 14 16 17 16 15 15 16 16 14 13 14 14 14 14 14 14 14 14 14 14 14 14 14 13 13 13 13 13 13 13 13 13 13 14 14 14 14 14 14 14 14 14 14 14
15 11 13 13 14 15 16 16 16 16 16 16 16 14 13 14 14 14 14 13 13 13 13 13 13 13 13 13 13 13 13 13 13 13 13 13 13 13 13 13 13 13 13 13 13 13 13 13 13
15 10 11 13 14 14 15 15 16 16 16 15 15 15 15 14 13 13 13 13 13 13 13 13 13 13 13 13 13 13 13 13 13 13 13 13 13 13 13 13 13 13 13 13 13 13 13 13 13
13 10 12 13 14 14 14 15 15 15 14 14 14 14 14 14 13 13 13 13 13 13 13 12 12 13 13 13 13 12 12 12 12 12 12 12 12 12 12 13 13 13 13 13 13 13 12 13 13
12 11 12 13 14 14 14 14 15 14 12 13 13 13 13 13 13 13 13 12 12 12 12 12 12 12 12 12 12 12 12 12 12 12 12 12 12 12 12 12 12 12 12 12 12 12 12 12 12
12 12 13 13 14 14 13 14 13 13 13 13 13 13 12 12 12 12 12 12 12 12 12 12 12 12 12 12 12 12 12 12 12 12 12 12 12 12 12 12 12 12 12 12 12 12 12 12 12
11 11 12 13 13 13 13 12 12 11 12 12 12 12 11 11 11 11 11 11 11 11 12 12 12 12 12 11 12 12 12 12 12 12 12 11 11 11 11 11 11 11 11 11 12 12 12 12 12
11 11 12 12 12 12 11 11 11 11 11 12 11 11 10 10 10 11 11 11 11 11 11 11 11 11 11 11 11 11 11 11 11 11 11 11 11 11 11 11 11 11 11 11 11 11 11 11 11
11 10 10 11 11 11 11 9 9 11 11 10 10 10 10 10 10 10 10 10 10 10 10 11 11 11 11 11 11 11 11 11 11 11 11 11 11 11 11 11 11 11 11 11 11 11 11 11 11
10 9 9 10 10 10 10 8 9 10 10 9 9 9 9 9 9 9 9 10 10 10 10 10 10 10 10 10 10 10 10 10 10 10 11 11 11 10 10 10 10 10 10 10 10 10 10 10 10
8 7 8 9 10 9 8 8 8 9 9 8 8 7 8 8 8 8 8 9 9 9 9 9 9 9 10 10 10 10 10 10 10 10 10 10 10 10 10 10 10 10 10 10 10 10 10 10 10
7 7 8 8 9 8 7 7 7 8 7 6 6 7 7 7 7 7 8 8 8 8 8 8 9 9 9 9 9 9 9 9 9 10 10 10 10 10 10 10 10 10 10 10 10 10 10 10 10
8 7 7 8 8 8 6 6 6 6 6 5 5 6 5 6 6 7 7 7 8 8 8 8 8 8 8 8 9 9 9 9 9 9 9 9 9 10 10 10 10 10 10 10 10 10 9 9 9
7 7 6 7 8 7 6 5 5 5 5 5 4 4 5 5 5 6 6 7 7 7 7 7 7 7 7 8 8 8 8 8 9 9 9 9 9 9 9 9 9 9 9 9 9 9 9 9 9
7 6 6 6 6 6 6 5 5 5 4 4 4 4 4 4 4 5 5 5 6 6 6 6 6 7 7 7 7 7 7 7 8 8 8 8 9 9 9 9 9 9 9 9 9 9 9 9 9
6 6 6 6 5 4 5 4 4 4 3 3 2 2 2 2 3 3 4 4 4 5 5 5 6 6 6 6 6 6 7 7 7 7 7 8 8 8 8 8 8 8 8 8 8 9 9 9 8
5 6 5 5 4 4 4 3 3 3 2 1 1 1 2 2 2 2 3 3 4 4 4 5 5 5 5 6 6 6 6 6 6 6 7 7 7 7 8 8 8 8 8 8 8 8 8 8 8
5 5 5 4 3 3 4 3 2 1 1 1 1 1 1 1 1 2 2 3 3 3 4 4 4 5 5 5 5 5 5 5 6 6 6 6 7 7 7 7 7 7 7 8 8 8 8 8 8
4 3 3 3 3 3 4 3 1 1 0 0 0 0 1 1 1 1 1 2 2 3 3 3 3 4 4 4 4 5 5 5 5 5 5 6 6 6 6 6 6 7 7 7 7 7 7 7 7
4 3 3 3 3 3 3 2 0 1 0 0 0 0 0 0 0 1 1 1 1 2 2 2 3 3 3 3 4 4 4 4 4 5 5 5 5 5 6 6 6 6 6 6 7 6 7 6 7
3 2 3 2 1 1 1 0 0 1 -0 -1 -1 -1 -1 -1 -0 -0 0 0 1 1 1 2 2 2 2 3 3 3 3 3 4 4 4 4 4 5 5 5 5 5 6 6 6 6 6 6 6
3 2 1 1 2 2 1 0 -0 -1 -1 -1 -2 -2 -2 -1 -1 -1 -1 -0 0 0 1 1 1 1 2 2 2 2 3 3 3 3 4 4 4 4 4 4 5 5 5 5 5 5 5 5 5
2 1 1 0 1 1 0 0 -0 -1 -2 -2 -2 -2 -2 -2 -2 -2 -1 -1 -1 -0 -0 0 1 1 1 1 2 2 2 2 2 3 3 3 3 3 4 4 4 4 4 4 5 5 5 5 5
1 1 -0 -0 -0 -1 -1 -1 -1 -2 -2 -2 -2 -2 -2 -2 -2 -2 -2 -2 -1 -1 -1 -1 -0 0 0 1 1 1 1 1 2 2 2 3 3 3 3 3 3 3 4 4 4 4 4 4 4
Wind_Speed
9 6 3 4 6 5 2 5 3 1 0 0 2 7 7 5 3 4 2 6 9 9 11 13 13 12 12 11 10 10 9 9 9 9 9 8 8 8 8 9 9 9 9 10 10 10 10 10 10
5 3 5 5 5 1 4 4 3 3 3 2 3 6 6 4 3 5 3 6 10 10 12 12 13 12 12 11 10 10 9 8 8 8 8 8 8 8 8 9 9 9 9 9 10 9 9 9 9
5 2 4 5 4 5 4 4 4 2 1 2 3 5 5 4 3 3 5 9 10 9 11 12 13 12 11 11 10 9 9 8 8 7 7 7 8 8 8 8 8 9 9 9 9 9 9 9 9
3 5 5 4 2 4 5 4 3 1 2 3 4 5 3 2 2 4 8 10 10 8 10 11 12 11 11 10 9 9 8 8 8 7 7 7 7 7 8 8 8 9 9 9 9 8 8 8 8
4 4 4 1 3 3 3 3 2 2 1 1 4 4 2 5 5 9 10 10 10 7 9 11 12 11 10 9 9 8 8 8 8 7 7 7 7 7 8 8 8 8 8 8 8 8 7 7 8
4 4 4 3 4 3 3 2 1 1 1 1 4 5 2 2 6 7 9 8 9 8 8 10 11 11 10 8 8 8 8 8 7 7 7 7 6 6 7 7 7 7 7 7 7 7 7 7 7
4 4 3 3 3 3 3 1 3 2 1 1 4 5 2 0 3 6 8 8 8 8 7 6 8 8 9 8 7 7 7 7 7 7 7 7 7 6 7 7 7 7 7 7 7 7 7 7 7
5 4 1 2 3 3 3 1 1 2 1 1 4 7 4 4 4 7 8 7 7 6 5 5 6 6 6 7 7 6 6 6 6 6 7 7 6 6 7 6 6 6 6 6 6 6 6 6 6
4 3 3 3 3 2 3 2 3 1 3 3 2 3 4 7 7 8 7 5 4 4 3 3 4 4 5 6 6 6 6 5 5 6 6 6 5 6 6 6 6 6 5 5 6 6 6 5 5
4 3 5 3 2 1 2 1 2 3 3 2 4 4 6 8 9 8 6 5 4 3 2 2 3 3 4 4 4 5 5 5 5 6 6 6 6 5 5 6 6 5 5 5 5 5 5 5 4
4 5 3 2 1 0 1 2 2 2 1 2 2 4 5 6 6 6 5 4 3 3 2 1 2 3 3 3 4 4 4 5 5 5 6 6 5 5 5 5 4 4 4 4 4 4 4 4 4
2 3 2 2 2 2 1 1 1 1 2 0 4 7 7 6 5 4 4 2 2 2 0 0 1 2 2 3 3 4 3 3 3 4 5 5 4 4 4 4 4 4 4 4 4 3 3 3 3
2 2 2 2 2 2 2 1 0 2 2 3 5 6 6 5 3 2 2 1 1 1 0 0 0 1 1 2 2 3 3 3 4 4 4 5 4 3 4 4 4 4 4 4 3 3 3 3 3
2 2 3 3 3 2 1 3 1 4 2 3 5 4 4 4 3 2 2 1 0 1 1 1 1 1 1 1 1 2 3 4 4 4 4 5 5 4 4 3 3 3 4 4 4 3 3 3 3
1 3 4 3 2 2 0 4 4 4 1 3 2 2 2 2 2 2 1 1 1 1 1 1 1 1 1 1 1 2 3 4 3 3 4 4 5 5 5 3 3 3 5 5 4 3 3 2 2
3 2 3 4 1 2 2 5 5 3 1 1 1 1 1 1 1 0 0 1 1 1 1 0 0 1 1 1 0 1 2 3 3 3 3 4 5 6 5 4 3 4 5 4 3 3 2 2 2
3 1 3 5 2 1 2 4 5 3 1 1 2 2 2 3 4 3 3 2 1 1 1 1 1 0 1 1 1 1 1 2 3 3 3 3 4 5 5 4 3 5 4 3 3 3 3 2 2
3 3 4 4 2 2 1 3 5 5 3 2 2 2 3 3 3 3 3 3 2 2 2 2 2 1 1 1 1 1 1 1 1 2 3 3 3 4 4 4 4 5 4 3 3 3 3 3 3
3 3 5 5 2 1 1 3 5 4 4 3 4 3 3 4 4 4 4 4 4 3 3 2 3 2 1 1 0 0 1 1 1 1 2 3 3 4 4 3 3 4 4 4 5 4 4 2 2
1 2 4 5 3 1 2 3 3 4 4 3 3 3 4 6 7 7 6 5 4 3 3 2 2 2 1 1 1 1 1 1 1 0 1 1 3 4 4 4 4 4 3 4 4 4 3 2 2
2 3 4 5 5 2 1 3 2 4 6 7 6 6 6 5 6 7 6 5 5 4 3 2 2 2 2 2 1 1 1 1 1 1 1 1 2 3 4 5 4 4 4 4 4 5 5 4 2
4 3 5 5 3 4 1 4 2 3 6 8 8 8 8 8 7 7 7 7 6 5 4 3 2 2 2 1 0 1 1 1 2 2 1 1 1 2 3 4 5 4 4 4 4 4 3 5 4
4 5 5 4 3 3 2 3 4 4 5 7 7 7 7 7 7 7 7 7 6 6 5 3 2 2 2 1 0 1 1 1 1 1 1 1 0 1 2 3 4 4 4 4 4 4 3 3 4
3 4 3 2 2 3 4 5 3 3 3 6 6 6 7 7 7 7 7 8 7 7 6 5 3 3 2 2 1 1 1 1 1 1 1 1 1 1 1 2 3 3 3 4 4 5 5 4 4
5 4 3 4 2 4 1 3 1 2 3 3 5 6 6 6 6 7 8 9 9 8 7 6 4 3 3 2 2 1 1 2 2 3 2 2 1 1 1 1 2 2 3 3 4 4 5 5 5
1 2 3 3 4 4 2 2 2 1 3 3 4 5 6 6 6 6 6 7 7 8 7 7 5 4 3 2 3 2 1 1 2 2 2 2 2 2 1 1 1 2 3 3 3 3 4 4 4
1 1 2 2 2 3 3 1 2 4 6 7 7 8 8 8 7 6 7 7 7 7 7 6 5 5 4 3 3 3 2 2 2 2 1 1 1 1 1 1 1 1 2 3 3 3 4 4 4
1 1 3 1 2 4 4 2 2 5 6 7 7 8 8 8 8 7 7 7 7 6 6 6 6 5 5 4 3 2 3 3 2 1 1 1 1 1 1 1 1 1 1 2 3 3 3 4 3
1 1 1 1 2 2 3 4 0 1 3 5 6 6 7 7 7 7 7 7 6 6 6 7 7 7 6 6 4 3 3 3 2 1 1 1 0 1 2 2 1 1 1 1 3 3 4 4 3
2 1 2 2 3 2 3 4 1 2 3 4 5 6 7 7 6 6 7 7 7 7 7 7 7 7 6 6 5 3 2 2 2 2 1 1 0 1 1 2 2 1 1 1 2 3 4 4 4
Wind_Direction
336 352 71 57 57 54 255 261 237 263 129 291 95 103 110 104 122 148 150 138 134 141 149 149 146 143 138 134 130 126 121 119 119 117 116 115 113 112 111 112 110 108 106 105 102 97 94 94 91
341 18 55 60 92 107 272 258 221 230 205 159 81 89 85 74 82 111 119 143 135 138 144 146 146 143 139 136 132 128 126 123 121 123 123 124 123 120 116 113 113 110 108 107 105 100 98 96 93
337 50 80 77 124 178 210 228 203 237 282 103 74 65 97 119 126 137 149 138 125 126 135 144 144 143 140 137 135 134 130 130 127 127 130 130 130 125 122 119 114 112 112 111 109 106 103 99 95
49 47 59 81 197 224 210 229 213 179 25 52 96 70 59 40 154 145 135 129 123 120 129 140 143 144 142 140 139 139 136 134 132 132 132 132 130 128 127 121 116 114 116 116 115 113 109 102 99
62 77 72 34 243 248 241 247 194 140 130 53 96 101 55 355 100 121 127 128 129 128 130 137 138 138 139 140 141 142 142 138 135 131 129 129 130 132 131 124 122 122 123 120 120 119 116 105 101
57 72 104 213 238 261 278 263 128 92 76 74 105 112 113 39 107 123 125 126 131 131 127 135 138 137 136 137 141 145 146 143 140 135 131 131 133 136 134 131 129 130 130 129 126 123 121 112 106
107 106 168 204 226 276 282 328 123 155 140 218 137 118 136 69 119 119 115 118 118 120 119 123 133 138 141 142 139 141 146 147 144 142 140 139 138 139 139 137 135 135 137 134 132 130 125 118 111
127 113 167 222 206 250 300 6 105 146 203 346 113 137 181 198 139 107 101 104 107 107 110 113 119 128 136 144 145 141 142 145 146 145 143 142 141 141 137 136 139 141 140 138 137 139 136 125 116
95 90 204 217 203 253 329 10 340 6 78 45 54 152 172 142 123 105 96 88 95 106 114 113 115 122 129 142 147 144 141 138 141 144 142 142 138 140 140 142 144 145 146 145 145 147 145 134 118
100 165 216 217 192 230 325 329 319 40 37 30 28 41 105 121 125 124 126 130 134 148 160 146 142 138 134 144 147 147 146 138 139 144 142 146 145 147 149 151 155 149 145 143 149 150 142 130 113
150 187 212 258 277 266 333 325 339 115 277 229 171 138 122 114 117 127 135 142 156 162 158 171 178 162 147 139 142 144 145 139 139 146 148 148 146 140 135 134 139 138 137 129 128 124 125 122 120
184 243 218 248 315 340 302 301 342 72 252 64 128 127 120 120 130 140 147 143 129 125 144 301 169 164 162 151 153 150 142 141 145 156 157 147 139 137 137 133 136 130 129 124 120 116 125 123 128
235 279 276 267 304 300 332 301 293 339 330 54 90 109 126 137 139 141 132 116 98 123 182 262 134 125 139 146 155 146 145 152 156 155 166 157 147 151 145 145 140 136 132 127 123 123 126 121 122
236 277 296 296 298 311 304 313 348 293 331 73 89 117 134 143 143 105 76 70 111 200 222 239 158 111 108 130 152 152 158 157 151 153 164 162 154 152 152 150 140 140 145 140 136 131 125 120 111
357 352 331 299 276 268 79 322 277 278 66 73 77 100 116 129 118 139 168 171 209 228 214 217 178 77 92 108 137 148 157 153 154 166 167 163 156 151 152 156 156 161 158 143 124 115 108 104 98
14 18 317 301 303 283 125 267 306 312 126 104 38 10 30 26 81 203 191 98 54 59 59 294 104 63 49 52 96 135 149 153 159 167 169 172 166 158 150 155 167 165 155 143 138 137 132 123 121
21 316 276 302 339 84 150 257 313 351 109 80 37 12 17 19 12 7 17 34 42 55 61 26 4 72 57 48 65 82 118 146 158 158 160 173 170 163 152 155 159 157 146 147 158 145 144 138 122
246 249 265 267 321 69 164 271 317 359 45 44 28 26 22 14 342 351 11 24 31 40 42 33 7 3 18 55 61 58 58 69 141 154 166 172 170 162 152 153 156 149 149 158 158 148 129 131 126
215 229 263 268 298 320 240 287 322 5 25 12 14 16 13 354 346 7 17 27 33 33 30 32 14 357 19 25 194 177 227 263 281 138 163 170 170 164 154 154 155 154 166 171 160 147 130 112 114
232 262 279 291 317 272 263 305 351 11 21 12 11 5 4 3 6 13 17 22 23 18 6 13 5 353 326 281 262 237 216 234 245 101 123 167 178 173 170 161 167 166 166 160 157 145 145 138 140
264 230 263 278 317 316 289 303 352 11 28 26 22 19 13 9 4 6 9 11 13 8 355 345 343 351 346 345 13 18 27 23 359 288 257 234 187 183 174 168 160 162 168 176 174 164 163 169 170
269 265 271 274 299 283 221 268 295 350 17 16 12 14 9 5 5 7 6 2 359 348 344 346 351 356 351 14 92 151 196 236 254 256 261 291 187 173 178 168 162 162 166 179 184 175 170 170 175
269 298 285 256 216 271 257 212 294 12 7 357 355 356 356 357 1 2 1 355 351 347 346 342 354 2 359 1 305 199 250 278 293 269 252 256 261 188 184 171 164 167 169 177 176 174 168 173 176
311 341 346 38 106 256 237 189 291 357 335 341 343 344 348 353 356 358 356 359 356 353 352 352 346 348 350 351 342 242 229 255 254 251 235 234 243 227 158 165 169 174 171 178 181 178 173 176 166
37 48 10 352 337 252 217 171 241 340 350 341 335 338 342 349 356 357 359 359 355 352 351 350 343 336 338 338 333 302 245 230 228 232 225 228 222 215 218 159 167 171 171 169 166 171 177 175 171
330 128 156 239 253 287 323 207 197 355 355 354 353 352 357 356 354 355 353 352 349 349 349 349 343 334 330 329 325 324 313 258 259 259 241 225 222 215 190 146 152 163 166 167 163 171 181 177 179
19 246 201 189 269 268 262 271 275 8 10 13 12 10 2 355 349 351 351 350 348 347 346 343 340 337 330 321 325 329 328 320 301 285 261 223 236 219 173 161 149 142 162 171 171 183 186 181 183
98 147 77 119 270 267 282 251 270 321 338 350 356 353 347 345 348 350 350 346 345 344 345 347 349 345 333 328 318 318 312 313 306 295 267 247 248 235 173 164 161 152 168 169 174 180 183 181 188
27 48 115 191 222 228 272 269 231 282 329 337 333 335 335 342 344 344 345 344 345 349 349 350 350 349 345 333 318 316 312 318 321 298 261 232 212 196 177 172 167 165 176 176 175 188 178 179 188
122 150 144 182 268 227 240 265 37 9 347 348 339 338 338 342 345 347 352 354 352 350 349 347 345 345 338 330 323 322 326 331 340 333 330 30 87 152 177 160 153 156 166 173 183 187 182 178 184
Height
1515 1516 1517 1518 1522 1534 1533 1525 1517 1514 1513 1512 1511 1511 1513 1517 1520 1526 1523 1523 1525 1526 1528 1530 1531 1532 1533 1534 1535 1536 1537 1538 1538 1539 1540 1540 1541 1541 1542 1542 1543 1543 1543 1544 1545 1545 1546 1547 1547
1516 1516 1518 1519 1529 1539 1533 1522 1517 1513 1512 1511 1511 1512 1514 1517 1518 1520 1520 1523 1524 1526 1528 1529 1531 1532 1533 1534 1535 1536 1537 1537 1538 1539 1539 1540 1541 1541 1542 1542 1543 1543 1544 1544 1545 1546 1546 1547 1548
1516 1516 1518 1522 1531 1534 1526 1517 1514 1511 1511 1511 1512 1513 1515 1518 1519 1519 1520 1522 1524 1526 1527 1529 1531 1532 1533 1534 1534 1535 1536 1537 1538 1538 1539 1540 1540 1541 1542 1542 1543 1543 1544 1544 1545 1546 1546 1547 1548
1516 1517 1519 1526 1527 1523 1518 1514 1512 1511 1511 1511 1512 1515 1517 1519 1520 1520 1521 1523 1524 1526 1527 1529 1530 1531 1532 1533 1534 1535 1536 1536 1537 1538 1539 1539 1540 1541 1541 1542 1542 1543 1544 1544 1545 1546 1547 1547 1548
1515 1517 1523 1529 1524 1519 1515 1512 1512 1512 1512 1512 1513 1516 1518 1520 1520 1520 1521 1523 1524 1525 1527 1528 1529 1530 1531 1532 1533 1534 1535 1536 1537 1537 1538 1539 1539 1540 1541 1541 1542 1543 1543 1544 1545 1546 1547 1547 1548
1516 1517 1529 1531 1523 1517 1513 1512 1512 1512 1513 1513 1513 1516 1519 1520 1519 1520 1521 1523 1524 1525 1526 1528 1529 1530 1531 1531 1532 1533 1534 1535 1536 1536 1537 1538 1539 1539 1540 1541 1542 1542 1543 1544 1545 1546 1546 1547 1548
1517 1521 1526 1524 1522 1518 1513 1512 1512 1512 1512 1513 1513 1516 1518 1520 1520 1521 1522 1523 1524 1525 1526 1527 1528 1529 1530 1531 1531 1532 1533 1534 1535 1535 1536 1537 1538 1538 1539 1540 1541 1542 1542 1543 1544 1545 1546 1547 1548
1515 1520 1523 1523 1520 1517 1513 1512 1512 1512 1512 1513 1513 1515 1517 1519 1520 1520 1522 1523 1524 1525 1526 1526 1527 1528 1529 1530 1530 1531 1532 1533 1534 1534 1535 1536 1537 1537 1538 1539 1540 1541 1542 1543 1544 1544 1545 1547 1547
1515 1523 1525 1521 1518 1516 1513 1512 1512 1512 1512 1513 1513 1514 1515 1517 1518 1520 1520 1522 1523 1524 1525 1525 1526 1527 1528 1528 1529 1530 1530 1531 1532 1533 1534 1535 1535 1536 1537 1538 1539 1540 1541 1542 1543 1544 1545 1546 1547
1515 1524 1519 1516 1514 1514 1513 1513 1513 1513 1512 1513 1513 1514 1515 1515 1517 1517 1518 1519 1521 1522 1523 1524 1525 1526 1527 1527 1528 1528 1529 1530 1531 1531 1532 1533 1534 1535 1536 1536 1537 1538 1540 1541 1542 1543 1544 1545 1546
1514 1517 1515 1514 1513 1513 1513 1513 1513 1513 1514 1513 1513 1513 1514 1514 1515 1516 1517 1518 1519 1520 1521 1522 1523 1524 1525 1525 1526 1527 1527 1528 1529 1530 1531 1531 1532 1533 1534 1535 1536 1537 1538 1539 1540 1542 1542 1544 1544
1514 1513 1513 1513 1512 1512 1512 1512 1513 1513 1514 1513 1512 1512 1512 1513 1514 1514 1515 1516 1517 1518 1518 1519 1521 1522 1523 1524 1524 1525 1526 1526 1527 1528 1529 1530 1530 1531 1532 1533 1534 1536 1537 1538 1539 1540 1541 1542 1543
1513 1513 1513 1512 1512 1512 1512 1512 1513 1513 1513 1511 1511 1511 1511 1512 1513 1514 1514 1515 1515 1516 1516 1517 1518 1519 1521 1522 1522 1523 1524 1524 1525 1526 1527 1528 1528 1529 1530 1532 1533 1534 1535 1536 1537 1539 1540 1541 1542
1512 1512 1512 1512 1511 1511 1512 1512 1513 1512 1512 1510 1509 1509 1510 1511 1511 1512 1512 1513 1513 1514 1515 1515 1516 1517 1518 1519 1520 1520 1521 1522 1523 1523 1524 1526 1526 1527 1528 1530 1531 1532 1533 1534 1536 1537 1538 1539 1540
1512 1513 1512 1511 1511 1511 1511 1514 1513 1511 1511 1509 1509 1509 1510 1510 1510 1510 1511 1511 1511 1512 1513 1513 1514 1515 1516 1516 1517 1518 1519 1519 1520 1521 1522 1523 1524 1525 1526 1527 1529 1530 1531 1533 1534 1535 1536 1537 1538
1514 1517 1519 1513 1511 1511 1515 1518 1513 1511 1510 1509 1509 1509 1509 1509 1509 1509 1510 1509 1510 1510 1510 1511 1512 1512 1513 1514 1514 1515 1515 1516 1517 1518 1519 1520 1521 1522 1524 1525 1526 1527 1529 1530 1531 1532 1533 1535 1536
1521 1524 1521 1516 1513 1513 1515 1517 1513 1511 1510 1509 1509 1509 1508 1508 1508 1508 1508 1508 1508 1508 1508 1509 1509 1510 1511 1511 1512 1512 1513 1513 1514 1515 1516 1517 1518 1520 1521 1522 1523 1525 1526 1527 1528 1530 1531 1532 1534
1524 1524 1521 1519 1514 1515 1517 1517 1514 1512 1511 1510 1509 1509 1508 1507 1507 1507 1506 1506 1506 1506 1506 1507 1507 1508 1508 1508 1509 1509 1510 1510 1511 1512 1513 1514 1515 1516 1518 1519 1520 1522 1523 1524 1526 1527 1529 1530 1531
1519 1521 1522 1518 1515 1516 1517 1517 1516 1514 1512 1511 1510 1510 1508 1508 1507 1506 1505 1505 1504 1504 1504 1504 1505 1505 1505 1505 1505 1505 1506 1507 1508 1509 1510 1511 1512 1513 1514 1516 1517 1518 1519 1521 1522 1524 1526 1527 1529
1519 1521 1521 1518 1515 1516 1517 1517 1516 1514 1514 1513 1512 1510 1509 1507 1506 1504 1504 1503 1502 1502 1502 1502 1502 1502 1502 1503 1503 1503 1503 1504 1505 1506 1507 1508 1509 1509 1511 1512 1513 1515 1516 1518 1519 1521 1522 1524 1526
1519 1521 1521 1521 1517 1515 1517 1517 1516 1514 1514 1513 1512 1511 1509 1508 1506 1504 1503 1502 1502 1501 1501 1501 1500 1500 1500 1500 1500 1500 1500 1501 1501 1502 1503 1504 1505 1506 1507 1508 1510 1511 1513 1514 1516 1518 1519 1521 1523
1520 1518 1518 1518 1522 1524 1519 1524 1518 1516 1515 1515 1514 1512 1510 1509 1507 1505 1503 1502 1501 1501 1500 1500 1499 1498 1498 1498 1497 1497 1496 1496 1497 1498 1500 1501 1502 1503 1504 1505 1506 1508 1509 1510 1512 1514 1516 1518 1519
1519 1517 1516 1516 1520 1524 1521 1525 1522 1518 1519 1518 1517 1514 1512 1510 1507 1505 1503 1502 1501 1500 1499 1498 1497 1496 1496 1495 1495 1494 1494 1494 1495 1496 1496 1497 1498 1499 1500 1501 1502 1504 1505 1507 1508 1510 1512 1514 1515
1519 1518 1516 1519 1522 1526 1520 1525 1524 1526 1523 1521 1518 1515 1513 1510 1508 1506 1504 1502 1500 1499 1497 1496 1495 1494 1493 1493 1492 1492 1492 1492 1492 1492 1493 1493 1494 1495 1496 1497 1498 1500 1501 1503 1505 1506 1508 1510 1512
1522 1526 1529 1528 1529 1523 1518 1522 1529 1526 1524 1522 1519 1516 1513 1511 1508 1506 1503 1501 1499 1497 1496 1494 1493 1492 1491 1490 1489 1489 1489 1489 1489 1489 1489 1490 1490 1491 1492 1493 1495 1496 1497 1499 1501 1503 1504 1506 1508
1526 1527 1535 1536 1532 1526 1521 1525 1530 1525 1523 1521 1519 1517 1514 1511 1508 1506 1504 1502 1499 1497 1495 1493 1491 1490 1489 1488 1487 1486 1486 1486 1486 1486 1486 1487 1487 1488 1489 1490 1491 1492 1494 1495 1497 1499 1500 1502 1504
1527 1530 1530 1535 1534 1533 1527 1529 1526 1524 1522 1521 1519 1516 1514 1512 1509 1507 1504 1501 1499 1496 1494 1492 1490 1488 1487 1486 1485 1484 1483 1483 1483 1483 1483 1483 1484 1485 1486 1487 1488 1489 1491 1492 1493 1495 1496 1498 1500
1528 1529 1535 1536 1534 1531 1526 1529 1530 1526 1524 1522 1520 1517 1515 1512 1509 1507 1504 1501 1498 1496 1494 1491 1489 1487 1485 1484 1483 1482 1481 1481 1480 1480 1480 1480 1481 1482 1483 1484 1485 1486 1487 1488 1490 1491 1493 1494 1495
1531 1533 1534 1536 1535 1534 1534 1531 1527 1527 1525 1524 1521 1518 1516 1513 1510 1507 1504 1501 1498 1495 1493 1490 1488 1486 1484 1482 1481 1480 1478 1478 1477 1477 1477 1478 1478 1479 1480 1481 1482 1483 1483 1484 1485 1487 1488 1490 1491
1531 1533 1536 1540 1539 1538 1537 1535 1526 1526 1525 1523 1521 1519 1516 1513 1510 1507 1504 1500 1497 1494 1492 1489 1487 1484 1482 1481 1479 1477 1476 1475 1474 1474 1474 1475 1475 1476 1477 1478 1478 1479 1480 1481 1482 1483 1484 1486 1487